Volver al catálogo

STARLINK-32125

ActivoComunicacionesVLEO
NORAD 60260·PAYLOAD·🇺🇸 United States

Lanzado Jul 27, 2024 desde Cape Canaveral Space Force Station

Loading…

Próximos Pases (próximas 24 horas)

TLE

ActualizadoSource: CelesTrak SupGP

Época: Sep 15, 2026, 02:41 UTC

1 60260C 24131F   26258.11229167 -.00033249  00000+0 -98217-3 0  2587
2 60260  53.1579 250.9142 0001335  82.4996 279.2060 15.34413008    15

Sigue STARLINK-32125 en tiempo real con AllMySat

Download on the App Store